[[{"header":{"parameterUnit":"m.s-1","parameterCategory":2,"la1":30.2991,"la2":30.254,"lo1":-89.0895,"lo2":-89.0444,"dy":0.0017,"dx":0.0017,"nx":28,"ny":28,"refTime":"2025-01-07T09:00:00:Z","depth":"0","parameterNumber":2,"parameterNumberName":"U-component_of_CURRENTS"},"data":[0,0,0,0,0,0,0,0,0,0,0,0,0,0,0,0,0,0,0,0,0,0,0,0,0,0,0,0,0,0,0,0,0,0,0,0,0,0,0,0,0,0,0,0,0,0,0,0,0,0,0,0,0,0,0,0,0,0,-0.2735,-0.2735,0,-0.2731,-0.2731,-0.2731,-0.2719,-0.2719,-0.2719,-0.2719,-0.2683,-0.2682,-0.2681,0,0,0,0,0,0,0,0,0,0,0,0,0,-0.2703,-0.2704,-0.2735,-0.2735,-0.2735,-0.2731,-0.2731,-0.2731,-0.2719,-0.2719,-0.2719,-0.2719,-0.2683,-0.2682,-0.2681,0,0,0,0,0,0,0,0,0,0,0,0,0,-0.2709,-0.2704,-0.2735,-0.2729,-0.2728,-0.2731,-0.2731,-0.2731,-0.2719,-0.2719,-0.2719,-0.2718,-0.2683,-0.2682,-0.2681,-0.2679,0,0,-0.2677,-0.2677,0,0,0,0,0,0,0,0,-0.2709,-0.271,-0.273,-0.2729,-0.2729,-0.2726,-0.2707,-0.2712,-0.2719,-0.2722,-0.2719,-0.2718,-0.2695,-0.2693,-0.2692,-0.2678,-0.2676,-0.2677,-0.2677,-0.2676,-0.2676,0,0,0,0,0,0,0,-0.2708,-0.271,-0.2732,-0.273,-0.2729,-0.2717,-0.2718,-0.2708,-0.2709,-0.2722,-0.2721,-0.2722,-0.2694,-0.2693,-0.2691,-0.2676,-0.2677,-0.2676,-0.2676,-0.2675,-0.2567,-0.2565,0,0,0,0,0,0,-0.2712,-0.271,-0.2732,-0.2732,-0.2719,-0.2718,-0.2719,-0.2727,-0.271,-0.2707,-0.2722,-0.2722,-0.2695,-0.2692,-0.269,-0.2664,-0.2676,-0.2675,-0.2674,-0.2569,-0.2567,-0.2564,0,0,0,0,0,0,-0.2712,-0.2715,-0.2733,-0.2721,-0.2723,-0.2719,-0.2728,-0.2727,-0.2727,-0.2711,-0.2707,-0.2724,-0.2695,-0.2691,-0.2663,-0.2663,-0.2674,-0.2673,-0.2572,-0.2568,-0.2565,-0.2626,0,0,0,0,0,0,-0.2711,-0.2715,-0.272,-0.2722,-0.2723,-0.2738,-0.2728,-0.2727,-0.2728,-0.2727,-0.2711,-0.2707,-0.2695,-0.2665,-0.2662,-0.2662,-0.2672,-0.2575,-0.257,-0.2566,-0.2627,-0.2626,-0.2624,0,0,0,0,0,-0.271,-0.272,-0.272,-0.2723,-0.2732,-0.2739,-0.2739,-0.2734,-0.2729,-0.2732,-0.2704,-0.2708,-0.2636,-0.2663,-0.266,-0.2659,-0.2577,-0.2572,-0.2567,-0.2628,-0.2626,-0.2624,0,0,0,0,0,0,-0.2703,-0.272,-0.272,-0.2733,-0.2737,-0.2737,-0.2738,-0.2737,-0.272,-0.2714,-0.2696,-0.269,-0.2657,-0.2639,-0.2669,-0.2605,-0.2601,-0.2595,-0.2648,-0.2646,-0.2645,-0.2652,-0.2672,0,0,0,0,0,-0.2706,-0.2714,-0.2729,-0.2732,-0.2741,-0.274,-0.2741,-0.2741,-0.2728,-0.2722,-0.2704,-0.2669,-0.2634,-0.2627,-0.2591,-0.2577,-0.2555,-0.2562,-0.2561,-0.256,-0.2557,-0.2508,-0.2504,-0.2548,-0.2548,-0.2548,0,0,-0.2691,-0.2709,-0.2706,-0.273,-0.2732,-0.2741,-0.274,-0.2744,-0.2743,-0.2719,-0.2701,-0.2666,-0.2623,-0.2594,-0.2578,-0.2585,-0.2538,-0.2554,-0.2555,-0.2551,-0.2503,-0.2499,-0.2496,-0.2545,-0.2546,-0.2546,0,0,-0.268,-0.2697,-0.2705,-0.2718,-0.2735,-0.2739,-0.2743,-0.2747,-0.2742,-0.2725,-0.269,-0.2653,-0.2617,-0.2583,-0.2561,-0.2527,-0.2524,-0.2512,-0.2532,-0.2486,-0.2483,-0.248,-0.2473,-0.2469,-0.2523,-0.2523,-0.2523,0,-0.2668,-0.2681,-0.2705,-0.2725,-0.2728,-0.274,-0.2746,-0.2749,-0.2735,-0.2727,-0.2719,-0.2637,-0.2607,-0.2565,-0.2549,-0.2529,-0.2514,-0.2558,-0.249,-0.2486,-0.2482,-0.2475,-0.247,-0.2526,-0.2525,-0.2525,-0.2525,0,-0.2661,-0.2678,-0.2685,-0.2712,-0.2725,-0.2728,-0.2744,-0.2746,-0.274,-0.2734,-0.2692,-0.2645,-0.2597,-0.2579,-0.256,-0.2514,-0.2517,-0.2493,-0.2511,-0.2483,-0.2476,-0.247,-0.2529,-0.2528,-0.2527,-0.2527,0,0,-0.2574,-0.2669,-0.266,-0.268,-0.2716,-0.2721,-0.2734,-0.274,-0.2739,-0.272,-0.2704,-0.264,-0.2621,-0.259,-0.2558,-0.2526,-0.2497,-0.2508,-0.2505,-0.2533,-0.2426,-0.2319,-0.2302,-0.247,-0.2468,-0.2467,-0.2444,0,-0.2544,-0.2608,-0.2646,-0.2657,-0.2676,-0.2707,-0.2716,-0.2726,-0.2728,-0.2719,-0.2683,-0.2648,-0.2626,-0.2602,-0.2566,-0.2507,-0.2478,-0.2507,-0.242,-0.2418,-0.2352,-0.2289,-0.2145,-0.21,-0.2437,-0.2436,-0.2435,0,-0.2472,-0.2539,-0.2585,-0.2644,-0.2652,-0.266,-0.2676,-0.2689,-0.2701,-0.2704,-0.2684,-0.2663,-0.2619,-0.2593,-0.2506,-0.2531,-0.2477,-0.2437,-0.2434,-0.2305,-0.2297,-0.2172,-0.2076,-0.2053,-0.2426,-0.2426,-0.2427,0,-0.2369,-0.2451,-0.2498,-0.2519,-0.261,-0.2617,-0.2642,-0.2669,-0.2675,-0.269,-0.2689,-0.2655,-0.2623,-0.2558,-0.248,-0.2495,-0.2381,-0.2389,-0.2247,-0.2243,-0.2083,-0.2064,-0.1972,-0.2305,-0.2305,-0.2305,-0.2306,0,-0.2287,-0.2294,-0.2459,-0.248,-0.2494,-0.2569,-0.2566,-0.2598,-0.2635,-0.2611,-0.2664,-0.2618,-0.2606,-0.2546,-0.2482,-0.2338,-0.2378,-0.2231,-0.2207,-0.2099,-0.2082,-0.2024,-0.2059,-0.2305,-0.2305,-0.2305,-0.2305,0,-0.2123,-0.2246,-0.2288,-0.2421,-0.2447,-0.2446,-0.2513,-0.2508,-0.2578,-0.255,-0.2552,-0.2587,-0.2502,-0.2479,-0.2375,-0.2317,-0.2146,-0.2141,-0.2035,-0.1997,-0.1835,-0.1878,-0.1765,-0.1717,-0.1992,-0.1989,-0.1987,0,-0.2045,-0.2067,-0.2221,-0.2242,-0.2291,-0.2326,-0.2335,-0.244,-0.2437,-0.2482,-0.244,-0.242,-0.232,-0.2194,-0.2088,-0.1974,-0.1993,-0.1808,-0.1781,-0.1779,-0.1813,-0.1863,-0.1836,-0.1622,-0.1617,-0.1612,-0.1609,0,-0.1865,-0.1935,-0.1996,-0.2072,-0.2101,-0.2132,-0.216,-0.2159,-0.2247,-0.2236,-0.2167,-0.211,-0.2021,-0.1834,-0.1752,-0.1672,-0.1745,-0.171,-0.1715,-0.1503,-0.1543,-0.1499,-0.1738,-0.1569,-0.1573,-0.1576,-0.1578,-0.158,-0.1705,-0.1702,-0.1805,-0.1843,-0.1887,-0.1885,-0.1841,-0.1877,-0.1841,-0.1781,-0.1837,-0.1717,-0.1645,-0.148,-0.1412,-0.1294,-0.1409,-0.1255,-0.1313,-0.137,-0.1284,-0.1446,-0.1238,-0.124,-0.1242,-0.1243,-0.1245,0,-0.1507,-0.1526,-0.1556,-0.1606,-0.1575,-0.1677,-0.1672,-0.1605,-0.1485,-0.1479,-0.1389,-0.1284,-0.1123,-0.1112,-0.0998,-0.0932,-0.094,-0.0936,-0.0984,-0.0979,-0.11,-0.1041,-0.0769,-0.0769,-0.077,-0.077,-0.077,-0.077,-0.1404,-0.1363,-0.1394,-0.1283,-0.1302,-0.1212,-0.1175,-0.1114,-0.1089,-0.0951,-0.0911,-0.0926,-0.0946,-0.0946,-0.0836,-0.078,-0.0804,-0.0744,-0.0838,-0.094,-0.0975,-0.101,-0.0959,-0.0675,-0.0675,-0.0639,-0.0639,-0.0639]},{"header":{"parameterUnit":"m.s-1","parameterCategory":2,"la1":30.2991,"la2":30.254,"lo1":-89.0895,"lo2":-89.0444,"dy":0.0017,"dx":0.0017,"nx":28,"ny":28,"refTime":"2025-01-07T09:00:00:Z","depth":"0","parameterNumber":3,"parameterNumberName":"V-component_of_CURRENTS"},"data":[0,0,0,0,0,0,0,0,0,0,0,0,0,0,0,0,0,0,0,0,0,0,0,0,0,0,0,0,0,0,0,0,0,0,0,0,0,0,0,0,0,0,0,0,0,0,0,0,0,0,0,0,0,0,0,0,0,0,-0.0539,-0.0538,0,-0.0508,-0.0508,-0.0508,-0.0494,-0.0494,-0.0493,-0.0493,-0.043,-0.0428,-0.0427,0,0,0,0,0,0,0,0,0,0,0,0,0,-0.0617,-0.0616,-0.0539,-0.0538,-0.0538,-0.0508,-0.0508,-0.0508,-0.0494,-0.0494,-0.0493,-0.0493,-0.043,-0.0429,-0.0427,0,0,0,0,0,0,0,0,0,0,0,0,0,-0.0586,-0.0616,-0.0539,-0.0526,-0.0524,-0.0508,-0.0508,-0.0508,-0.0494,-0.0494,-0.0493,-0.0493,-0.0431,-0.0429,-0.0426,-0.0415,0,0,-0.0419,-0.0418,0,0,0,0,0,0,0,0,-0.0588,-0.0583,-0.0528,-0.0527,-0.0525,-0.0503,-0.0512,-0.0475,-0.0494,-0.0507,-0.0493,-0.0493,-0.0451,-0.0447,-0.0444,-0.0412,-0.041,-0.0419,-0.0418,-0.0417,-0.0416,0,0,0,0,0,0,0,-0.059,-0.0585,-0.0528,-0.0528,-0.0526,-0.0533,-0.0528,-0.0506,-0.0481,-0.0506,-0.0504,-0.0499,-0.045,-0.0446,-0.0442,-0.0409,-0.0419,-0.0417,-0.0416,-0.0415,-0.0321,-0.032,0,0,0,0,0,0,-0.0589,-0.0587,-0.0529,-0.0527,-0.0555,-0.0531,-0.0526,-0.0512,-0.0482,-0.0477,-0.0499,-0.0498,-0.045,-0.0445,-0.044,-0.0418,-0.0417,-0.0414,-0.0413,-0.0322,-0.0321,-0.032,0,0,0,0,0,0,-0.0591,-0.0584,-0.053,-0.0556,-0.0549,-0.053,-0.0514,-0.0511,-0.0509,-0.0476,-0.0471,-0.0499,-0.045,-0.0443,-0.0415,-0.0416,-0.0413,-0.0411,-0.0323,-0.0322,-0.032,-0.0378,0,0,0,0,0,0,-0.0593,-0.0584,-0.0581,-0.0555,-0.0548,-0.0526,-0.0514,-0.0511,-0.0505,-0.0503,-0.0475,-0.0469,-0.0449,-0.0418,-0.0412,-0.0412,-0.0409,-0.0325,-0.0323,-0.0321,-0.0378,-0.0379,-0.038,0,0,0,0,0,-0.0596,-0.0597,-0.0581,-0.0575,-0.0541,-0.0526,-0.0523,-0.051,-0.0505,-0.0507,-0.048,-0.047,-0.0401,-0.0416,-0.0409,-0.0408,-0.0326,-0.0323,-0.0321,-0.0377,-0.0379,-0.038,0,0,0,0,0,0,-0.0643,-0.0594,-0.0577,-0.0566,-0.0547,-0.0523,-0.0527,-0.0513,-0.0496,-0.0495,-0.0463,-0.0455,-0.043,-0.0403,-0.0421,-0.037,-0.0358,-0.0355,-0.0404,-0.0405,-0.0406,-0.0421,-0.0407,0,0,0,0,0,-0.0647,-0.0626,-0.059,-0.0583,-0.0574,-0.055,-0.0544,-0.0533,-0.051,-0.0503,-0.0477,-0.0444,-0.0414,-0.0398,-0.0369,-0.0347,-0.0317,-0.0336,-0.0337,-0.0338,-0.0342,-0.0296,-0.0295,-0.0312,-0.0312,-0.0312,0,0,-0.0659,-0.0635,-0.0621,-0.059,-0.0576,-0.0573,-0.0547,-0.0541,-0.0536,-0.0498,-0.0484,-0.0451,-0.0407,-0.0383,-0.0368,-0.0363,-0.0315,-0.0335,-0.0337,-0.0341,-0.0294,-0.0292,-0.0291,-0.031,-0.031,-0.0311,0,0,-0.0689,-0.0656,-0.0654,-0.0641,-0.0618,-0.0597,-0.0596,-0.0567,-0.0552,-0.0531,-0.0498,-0.0461,-0.0422,-0.0387,-0.0365,-0.035,-0.0324,-0.0339,-0.036,-0.0316,-0.0315,-0.0314,-0.0273,-0.0268,-0.0339,-0.0339,-0.0339,0,-0.071,-0.0701,-0.0656,-0.0662,-0.0657,-0.061,-0.062,-0.0596,-0.0561,-0.0548,-0.0533,-0.046,-0.0423,-0.0386,-0.0378,-0.0356,-0.033,-0.0368,-0.0321,-0.0319,-0.0316,-0.0275,-0.0269,-0.0341,-0.0341,-0.0341,-0.0341,0,-0.0739,-0.0739,-0.0742,-0.0722,-0.0709,-0.0711,-0.0669,-0.0652,-0.0623,-0.0594,-0.0551,-0.0493,-0.0449,-0.0426,-0.04,-0.0362,-0.0349,-0.0333,-0.0328,-0.0319,-0.0275,-0.0267,-0.0345,-0.0344,-0.0343,-0.0343,0,0,-0.0743,-0.0762,-0.076,-0.0774,-0.0742,-0.0739,-0.0721,-0.069,-0.0681,-0.063,-0.061,-0.0542,-0.0504,-0.0475,-0.0428,-0.0385,-0.0341,-0.0358,-0.0355,-0.0337,-0.0249,-0.0194,-0.018,-0.0325,-0.0324,-0.0323,-0.0226,0,-0.0776,-0.0833,-0.0809,-0.0837,-0.0855,-0.0809,-0.0796,-0.0761,-0.0717,-0.0682,-0.0608,-0.0571,-0.0523,-0.0502,-0.045,-0.0367,-0.0323,-0.0369,-0.0243,-0.0239,-0.0208,-0.017,-0.0154,-0.0062,-0.0218,-0.0216,-0.0215,0,-0.0791,-0.0829,-0.0892,-0.0906,-0.0905,-0.0907,-0.0877,-0.0861,-0.0793,-0.0759,-0.0701,-0.0641,-0.0561,-0.0525,-0.0384,-0.0419,-0.0341,-0.0276,-0.0271,-0.0196,-0.017,-0.0092,-0.0041,0.0066,-0.0203,-0.0204,-0.0205,0,-0.083,-0.0868,-0.0932,-0.094,-0.0951,-0.0953,-0.0941,-0.0888,-0.0872,-0.0807,-0.0778,-0.0683,-0.062,-0.0519,-0.0366,-0.0382,-0.0208,-0.0212,-0.009,-0.0085,-0.0032,-0.0024,0.0123,-0.0119,-0.0119,-0.0119,-0.012,0,-0.0869,-0.0898,-0.096,-0.0997,-0.1033,-0.101,-0.1018,-0.0991,-0.0942,-0.0908,-0.0822,-0.0756,-0.0615,-0.049,-0.0377,-0.0192,-0.0209,-0.0083,-0.005,-0.0049,-0.0045,0.0083,0.0121,-0.0116,-0.0117,-0.0117,-0.0118,0,-0.0887,-0.0939,-0.1003,-0.1054,-0.1062,-0.1085,-0.1079,-0.1076,-0.1022,-0.0971,-0.0951,-0.0807,-0.0631,-0.0477,-0.0289,-0.0189,0.0041,0.0029,0.0022,0.0053,0.0248,0.0282,0.0459,0.0531,0.0164,0.0166,0.0168,0,-0.0902,-0.0952,-0.1058,-0.1097,-0.1118,-0.1145,-0.1155,-0.1126,-0.1103,-0.0979,-0.0945,-0.0776,-0.062,-0.0326,-0.0132,0.0075,0.0153,0.0204,0.0181,0.0279,0.034,0.0352,0.04,0.0227,0.0229,0.0231,0.0232,0,-0.0906,-0.0962,-0.1032,-0.1137,-0.1177,-0.1209,-0.1209,-0.1206,-0.1133,-0.1059,-0.0904,-0.0775,-0.0483,-0.0224,0.0036,0.0156,0.0283,0.0245,0.0352,0.0415,0.0432,0.051,0.0138,0.0247,0.0246,0.0245,0.0244,0.0243,-0.0894,-0.0951,-0.1065,-0.1143,-0.12,-0.1226,-0.122,-0.119,-0.113,-0.0975,-0.087,-0.0645,-0.0315,0.0063,0.0201,0.047,0.0439,0.0537,0.0573,0.0579,0.0646,0.0311,0.0453,0.0453,0.0453,0.0453,0.0452,0,-0.0869,-0.0946,-0.1043,-0.1138,-0.1182,-0.1216,-0.1211,-0.1164,-0.1055,-0.0928,-0.0758,-0.0382,-0.0043,0.0247,0.0623,0.0777,0.0793,0.0852,0.0865,0.0901,0.0615,0.0616,0.0794,0.0793,0.0793,0.0793,0.0793,0.0793,-0.0861,-0.0948,-0.1013,-0.1078,-0.1128,-0.1134,-0.1116,-0.1045,-0.0947,-0.0704,-0.0493,-0.035,0.0081,0.0676,0.1026,0.106,0.1184,0.1175,0.1255,0.1041,0.1013,0.0987,0.0999,0.1254,0.1254,0.1517,0.152,0.1522]}],[{"header":{"parameterUnit":"m.s-1","parameterCategory":2,"la1":30.2991,"la2":30.254,"lo1":-89.0895,"lo2":-89.0444,"dy":0.0017,"dx":0.0017,"nx":28,"ny":28,"refTime":"2025-01-07T09:00:00:Z","depth":"2","parameterNumber":2,"parameterNumberName":"U-component_of_CURRENTS"},"data":[0,0,0,0,0,0,0,0,0,0,0,0,0,0,0,0,0,0,0,0,0,0,0,0,0,0,0,0,0,0,0,0,0,0,0,0,0,0,0,0,0,0,0,0,0,0,0,0,0,0,0,0,0,0,0,0,0,0,-0.2384,-0.2384,0,-0.2383,-0.2382,-0.2382,-0.2374,-0.2374,-0.2375,-0.2375,-0.2378,-0.2377,-0.2377,0,0,0,0,0,0,0,0,0,0,0,0,0,-0.2352,-0.2353,-0.2384,-0.2384,-0.2385,-0.2383,-0.2382,-0.2382,-0.2374,-0.2374,-0.2375,-0.2375,-0.2378,-0.2377,-0.2377,0,0,0,0,0,0,0,0,0,0,0,0,0,-0.2355,-0.2353,-0.2384,-0.2385,-0.2385,-0.2383,-0.2382,-0.2381,-0.2374,-0.2374,-0.2375,-0.2375,-0.2378,-0.2377,-0.2377,-0.2366,0,0,-0.2376,-0.2376,0,0,0,0,0,0,0,0,-0.2355,-0.2355,-0.2384,-0.2385,-0.2385,-0.2384,-0.2372,-0.2378,-0.2374,-0.2373,-0.2375,-0.2375,-0.2383,-0.2382,-0.2373,-0.2366,-0.2366,-0.2376,-0.2376,-0.2376,-0.2376,0,0,0,0,0,0,0,-0.2355,-0.2355,-0.2378,-0.2385,-0.2385,-0.2376,-0.2377,-0.2373,-0.2371,-0.2373,-0.2373,-0.2382,-0.2383,-0.2374,-0.2374,-0.2366,-0.2376,-0.2376,-0.2376,-0.2376,-0.2351,-0.235,0,0,0,0,0,0,-0.2367,-0.2355,-0.2378,-0.2378,-0.2377,-0.2377,-0.2377,-0.2379,-0.2371,-0.2372,-0.2381,-0.2381,-0.2374,-0.2374,-0.2374,-0.2385,-0.2376,-0.2376,-0.2375,-0.2351,-0.2351,-0.235,0,0,0,0,0,0,-0.2366,-0.2368,-0.2378,-0.2371,-0.2373,-0.2378,-0.238,-0.2379,-0.2393,-0.2379,-0.2378,-0.2399,-0.2374,-0.2374,-0.2382,-0.2384,-0.2375,-0.2375,-0.2352,-0.2351,-0.235,-0.2392,0,0,0,0,0,0,-0.2365,-0.2368,-0.2367,-0.2372,-0.2374,-0.2385,-0.238,-0.2379,-0.2398,-0.2399,-0.2393,-0.2392,-0.2375,-0.2382,-0.2382,-0.2384,-0.2375,-0.2352,-0.2352,-0.2351,-0.2391,-0.2393,-0.2394,0,0,0,0,0,-0.2363,-0.2359,-0.2367,-0.237,-0.2374,-0.2386,-0.2385,-0.2386,-0.2399,-0.2401,-0.24,-0.2394,-0.2375,-0.2383,-0.2381,-0.2384,-0.2353,-0.2352,-0.2351,-0.2391,-0.2393,-0.2394,0,0,0,0,0,0,-0.2332,-0.2359,-0.2367,-0.2368,-0.2383,-0.2387,-0.2392,-0.2402,-0.2403,-0.2404,-0.2399,-0.2397,-0.2395,-0.2385,-0.2394,-0.237,-0.2359,-0.2358,-0.2389,-0.2391,-0.2392,-0.239,-0.2375,0,0,0,0,0,-0.2331,-0.2343,-0.2363,-0.2365,-0.238,-0.2394,-0.24,-0.24,-0.2407,-0.2408,-0.2412,-0.2402,-0.2385,-0.2389,-0.2368,-0.2372,-0.2353,-0.2367,-0.2369,-0.237,-0.2365,-0.2332,-0.2331,-0.2347,-0.2347,-0.2347,0,0,-0.2324,-0.2337,-0.2346,-0.2362,-0.2377,-0.2388,-0.2397,-0.241,-0.2414,-0.2408,-0.2421,-0.2409,-0.2385,-0.2375,-0.2374,-0.2375,-0.2358,-0.2369,-0.2371,-0.2364,-0.2331,-0.233,-0.2328,-0.2346,-0.2346,-0.2346,0,0,-0.2311,-0.2331,-0.2338,-0.2358,-0.2381,-0.2388,-0.2402,-0.2421,-0.2426,-0.2434,-0.2422,-0.2418,-0.2411,-0.2389,-0.2377,-0.2377,-0.236,-0.2371,-0.2389,-0.2359,-0.2357,-0.2356,-0.2346,-0.2343,-0.2381,-0.2381,-0.2381,0,-0.2295,-0.2306,-0.2339,-0.2352,-0.2366,-0.2397,-0.2402,-0.2413,-0.2428,-0.2434,-0.2441,-0.242,-0.2409,-0.239,-0.2387,-0.2381,-0.2368,-0.2391,-0.2362,-0.236,-0.2358,-0.2348,-0.2344,-0.2383,-0.2382,-0.2382,-0.2382,0,-0.2285,-0.2302,-0.2314,-0.2342,-0.236,-0.237,-0.2399,-0.2416,-0.2435,-0.2442,-0.2441,-0.2425,-0.2414,-0.2409,-0.2402,-0.2381,-0.2379,-0.2364,-0.2363,-0.2359,-0.2348,-0.2344,-0.2385,-0.2385,-0.2384,-0.2384,0,0,-0.221,-0.229,-0.2289,-0.2312,-0.2353,-0.2364,-0.2387,-0.2405,-0.2423,-0.2435,-0.2449,-0.2424,-0.2431,-0.2416,-0.2407,-0.239,-0.2374,-0.238,-0.2377,-0.238,-0.2323,-0.2223,-0.2209,-0.2357,-0.2356,-0.2356,-0.2329,0,-0.2182,-0.2205,-0.225,-0.2274,-0.2292,-0.2342,-0.2365,-0.2389,-0.2412,-0.2439,-0.2435,-0.2437,-0.243,-0.243,-0.2412,-0.2384,-0.2361,-0.2384,-0.2317,-0.2315,-0.2234,-0.2199,-0.2018,-0.1969,-0.2324,-0.2324,-0.2323,0,-0.2134,-0.2162,-0.2182,-0.2252,-0.2266,-0.2288,-0.233,-0.2353,-0.2401,-0.242,-0.2434,-0.2445,-0.244,-0.2426,-0.2378,-0.2396,-0.2357,-0.2332,-0.233,-0.2215,-0.2205,-0.2024,-0.1947,-0.2315,-0.2316,-0.2317,-0.2317,0,-0.2043,-0.2105,-0.2121,-0.2145,-0.2229,-0.2251,-0.229,-0.2342,-0.2363,-0.2413,-0.2433,-0.2437,-0.2436,-0.2396,-0.236,-0.237,-0.2299,-0.2303,-0.2174,-0.2169,-0.1986,-0.1965,-0.224,-0.224,-0.224,-0.224,-0.224,0,-0.1981,-0.1991,-0.2091,-0.2103,-0.2127,-0.2206,-0.2232,-0.2277,-0.2337,-0.2342,-0.2419,-0.2402,-0.2424,-0.2398,-0.2361,-0.225,-0.2294,-0.216,-0.2139,-0.1996,-0.1977,-0.2252,-0.2254,-0.2239,-0.2239,-0.2239,-0.2239,0,-0.1876,-0.1942,-0.1968,-0.2061,-0.2089,-0.2106,-0.2195,-0.2207,-0.229,-0.2298,-0.2315,-0.2375,-0.2327,-0.2337,-0.2273,-0.2228,-0.215,-0.2093,-0.1938,-0.1897,-0.2049,-0.2053,-0.1954,-0.195,-0.1947,-0.1944,-0.1942,0,-0.1821,-0.1827,-0.1918,-0.1929,-0.1974,-0.2022,-0.2044,-0.2152,-0.2164,-0.2241,-0.2222,-0.2235,-0.217,-0.2091,-0.2005,-0.1921,-0.2021,-0.1734,-0.1698,-0.2022,-0.2013,-0.2023,-0.2031,-0.1492,-0.1487,-0.1482,-0.1478,0,-0.1706,-0.1747,-0.1772,-0.1804,-0.1836,-0.1868,-0.1915,-0.192,-0.2019,-0.2026,-0.1992,-0.1959,-0.1902,-0.1722,-0.1667,-0.1601,-0.1742,-0.163,-0.1981,-0.1589,-0.1581,-0.1575,-0.1599,-0.1435,-0.1439,-0.1442,-0.1445,-0.1446,-0.1604,-0.1594,-0.163,-0.1648,-0.1682,-0.1677,-0.1646,-0.1687,-0.1669,-0.1638,-0.1697,-0.1593,-0.1601,-0.1375,-0.1299,-0.127,-0.1394,-0.1357,-0.1374,-0.1395,-0.1342,-0.1328,-0.1126,-0.1129,-0.1131,-0.1133,-0.1134,0,-0.146,-0.1459,-0.1464,-0.1473,-0.1441,-0.1519,-0.1519,-0.1457,-0.1362,-0.1356,-0.1288,-0.1124,-0.1,-0.1038,-0.0893,-0.0879,-0.0897,-0.0872,-0.0892,-0.0934,-0.0971,-0.09,-0.0564,-0.0563,-0.0562,-0.0561,0,0,-0.138,-0.1327,-0.1335,-0.1227,-0.1226,-0.1139,-0.1104,-0.104,-0.1008,-0.0885,-0.0825,-0.0871,-0.0941,-0.0723,-0.0693,-0.0598,-0.0762,-0.0567,-0.1016,-0.1075,-0.111,-0.1232,-0.1165,0,0,0,0,0]},{"header":{"parameterUnit":"m.s-1","parameterCategory":2,"la1":30.2991,"la2":30.254,"lo1":-89.0895,"lo2":-89.0444,"dy":0.0017,"dx":0.0017,"nx":28,"ny":28,"refTime":"2025-01-07T09:00:00:Z","depth":"2","parameterNumber":3,"parameterNumberName":"V-component_of_CURRENTS"},"data":[0,0,0,0,0,0,0,0,0,0,0,0,0,0,0,0,0,0,0,0,0,0,0,0,0,0,0,0,0,0,0,0,0,0,0,0,0,0,0,0,0,0,0,0,0,0,0,0,0,0,0,0,0,0,0,0,0,0,-0.0159,-0.0159,0,-0.0132,-0.0131,-0.0131,-0.0106,-0.0106,-0.0106,-0.0105,-0.007,-0.0069,-0.0068,0,0,0,0,0,0,0,0,0,0,0,0,0,-0.0207,-0.0206,-0.0159,-0.0159,-0.0159,-0.0132,-0.0131,-0.0131,-0.0106,-0.0106,-0.0106,-0.0105,-0.007,-0.0069,-0.0068,0,0,0,0,0,0,0,0,0,0,0,0,0,-0.0182,-0.0206,-0.0159,-0.0145,-0.0143,-0.0132,-0.0131,-0.0131,-0.0106,-0.0106,-0.0106,-0.0105,-0.0071,-0.0069,-0.0068,-0.0065,0,0,-0.0064,-0.0064,0,0,0,0,0,0,0,0,-0.0184,-0.018,-0.0147,-0.0146,-0.0144,-0.0124,-0.0135,-0.0109,-0.0106,-0.0118,-0.0105,-0.0105,-0.0089,-0.0086,-0.0079,-0.0063,-0.0062,-0.0064,-0.0064,-0.0063,-0.0063,0,0,0,0,0,0,0,-0.0185,-0.0181,-0.0147,-0.0147,-0.0145,-0.0145,-0.0141,-0.013,-0.0103,-0.0117,-0.0116,-0.0115,-0.0087,-0.008,-0.0078,-0.0061,-0.0064,-0.0063,-0.0063,-0.0062,-0.0056,-0.0056,0,0,0,0,0,0,-0.0191,-0.0183,-0.0148,-0.0146,-0.0166,-0.0145,-0.014,-0.0129,-0.0104,-0.01,-0.0116,-0.0114,-0.0082,-0.0079,-0.0076,-0.0083,-0.0063,-0.0062,-0.0061,-0.0055,-0.0056,-0.0057,0,0,0,0,0,0,-0.0192,-0.0188,-0.0149,-0.0166,-0.0161,-0.0144,-0.0132,-0.0129,-0.0131,-0.0103,-0.0099,-0.0123,-0.0082,-0.0078,-0.0078,-0.0081,-0.0061,-0.006,-0.0055,-0.0056,-0.0056,-0.0089,0,0,0,0,0,0,-0.0194,-0.0188,-0.0183,-0.0166,-0.0161,-0.0146,-0.0132,-0.0128,-0.0131,-0.0129,-0.0107,-0.0103,-0.0081,-0.008,-0.0076,-0.0079,-0.0059,-0.0054,-0.0055,-0.0056,-0.0087,-0.009,-0.0093,0,0,0,0,0,-0.0195,-0.0193,-0.0183,-0.0179,-0.0153,-0.0146,-0.0143,-0.013,-0.0132,-0.0131,-0.0123,-0.0104,-0.0084,-0.0079,-0.0075,-0.0077,-0.0053,-0.0055,-0.0056,-0.0085,-0.009,-0.0093,0,0,0,0,0,0,-0.0204,-0.019,-0.0179,-0.0169,-0.0159,-0.0143,-0.0148,-0.014,-0.0133,-0.0136,-0.0113,-0.0109,-0.0107,-0.0093,-0.0089,-0.008,-0.0065,-0.0065,-0.0089,-0.0092,-0.0096,-0.0096,-0.0058,0,0,0,0,0,-0.0205,-0.0209,-0.0186,-0.0184,-0.018,-0.0168,-0.0165,-0.0155,-0.0147,-0.0144,-0.0131,-0.012,-0.0108,-0.0102,-0.0089,-0.0088,-0.006,-0.0087,-0.009,-0.0093,-0.0091,-0.0055,-0.0055,-0.0061,-0.0061,-0.0061,0,0,-0.0214,-0.0205,-0.0209,-0.0188,-0.0184,-0.0183,-0.0166,-0.0167,-0.0167,-0.0142,-0.0147,-0.0132,-0.0111,-0.0106,-0.0104,-0.0095,-0.0077,-0.0094,-0.0097,-0.0093,-0.0057,-0.0056,-0.0055,-0.0062,-0.0061,-0.0061,0,0,-0.0239,-0.0221,-0.0233,-0.023,-0.0222,-0.0205,-0.021,-0.0196,-0.0189,-0.019,-0.0171,-0.016,-0.015,-0.0127,-0.0117,-0.0133,-0.0097,-0.0133,-0.0148,-0.0114,-0.0113,-0.0111,-0.0076,-0.0071,-0.0134,-0.0134,-0.0134,0,-0.0249,-0.0253,-0.0236,-0.0247,-0.025,-0.022,-0.0231,-0.0217,-0.0205,-0.0201,-0.0197,-0.0174,-0.0156,-0.0141,-0.0144,-0.0139,-0.0115,-0.0133,-0.0117,-0.0115,-0.0113,-0.0077,-0.0071,-0.0136,-0.0136,-0.0135,-0.0135,0,-0.0278,-0.0287,-0.0298,-0.0297,-0.0293,-0.0301,-0.0277,-0.0269,-0.0259,-0.0242,-0.023,-0.0204,-0.0188,-0.018,-0.0167,-0.0147,-0.0134,-0.0125,-0.0104,-0.0114,-0.0076,-0.0069,-0.0138,-0.0138,-0.0137,-0.0137,0,0,-0.03,-0.0314,-0.0322,-0.0337,-0.0323,-0.0325,-0.0318,-0.0298,-0.0297,-0.0275,-0.0272,-0.0244,-0.0225,-0.0213,-0.019,-0.0159,-0.0124,-0.0141,-0.0138,-0.0101,-0.0047,-0.0006,0.0005,-0.0113,-0.0112,-0.0111,-0.0025,0,-0.0331,-0.0364,-0.0357,-0.0392,-0.0407,-0.038,-0.0379,-0.0357,-0.0329,-0.0315,-0.0275,-0.0266,-0.0239,-0.0235,-0.0198,-0.0144,-0.0108,-0.0148,-0.0046,-0.0043,-0.0002,0.0014,-0.0005,0.0073,-0.0018,-0.0017,-0.0016,0,-0.037,-0.0384,-0.0422,-0.0445,-0.0449,-0.0459,-0.0445,-0.044,-0.0396,-0.0377,-0.0343,-0.031,-0.0264,-0.0245,-0.0143,-0.0171,-0.0113,-0.0066,-0.0062,-0.0007,0.001,0.0068,0.0089,-0.0005,-0.0006,-0.0007,-0.0007,0,-0.0411,-0.044,-0.0472,-0.0483,-0.0489,-0.0501,-0.0497,-0.0463,-0.0461,-0.0416,-0.0408,-0.0339,-0.0312,-0.023,-0.0126,-0.0138,-0.0007,-0.001,0.0084,0.0088,0.0102,0.0106,0.0063,0.0063,0.0063,0.0063,0.0063,0,-0.046,-0.0494,-0.0499,-0.0524,-0.0561,-0.0549,-0.0574,-0.0552,-0.0524,-0.0518,-0.0452,-0.0422,-0.0307,-0.0218,-0.0128,0.0009,-0.0004,0.0092,0.0117,0.009,0.0091,0.0044,0.0041,0.0066,0.0065,0.0065,0.0064,0,-0.0525,-0.0525,-0.057,-0.0582,-0.059,-0.0622,-0.0637,-0.0644,-0.061,-0.0597,-0.0589,-0.0482,-0.0353,-0.0226,-0.0075,0.0008,0.0131,0.018,0.0146,0.0165,0.02,0.0194,0.029,0.0292,0.0294,0.0296,0.0297,0,-0.0558,-0.0589,-0.0623,-0.0649,-0.0665,-0.07,-0.0719,-0.0695,-0.0694,-0.0626,-0.062,-0.0495,-0.0387,-0.0142,0.0027,0.0206,0.0194,0.0289,0.0267,0.0212,0.0226,0.0216,0.0208,0.0271,0.0272,0.0273,0.0273,0,-0.062,-0.0638,-0.0671,-0.0722,-0.0756,-0.0787,-0.0807,-0.0814,-0.0771,-0.0731,-0.0636,-0.0541,-0.0308,-0.0092,0.0138,0.0234,0.0259,0.0312,0.0273,0.0216,0.0201,0.0212,0.0203,0.0281,0.028,0.0279,0.0279,0.0279,-0.0659,-0.0702,-0.0741,-0.0792,-0.0827,-0.0851,-0.0859,-0.0849,-0.0819,-0.072,-0.0639,-0.0459,-0.0281,0.0071,0.0214,0.0349,0.0344,0.0377,0.0371,0.0365,0.0347,0.0336,0.0438,0.0438,0.0438,0.0439,0.0439,0,-0.0686,-0.0738,-0.08,-0.0842,-0.0876,-0.0886,-0.0893,-0.0858,-0.0792,-0.0686,-0.0561,-0.033,-0.0104,0.008,0.0303,0.0425,0.0391,0.0439,0.037,0.0363,0.0357,0.0335,0.0425,0.0425,0.0425,0.0426,0,0,-0.07,-0.0769,-0.0806,-0.0862,-0.0888,-0.0894,-0.0883,-0.0809,-0.0718,-0.0572,-0.0432,-0.0276,-0.0065,0.0088,0.023,0.0341,0.0316,0.0345,0.0346,0.0241,0.0233,0.0315,0.0275,0,0,0,0,0]}],[{"header":{"parameterUnit":"m.s-1","parameterCategory":2,"la1":30.2991,"la2":30.254,"lo1":-89.0895,"lo2":-89.0444,"dy":0.0017,"dx":0.0017,"nx":28,"ny":28,"refTime":"2025-01-07T09:00:00:Z","depth":"4","parameterNumber":2,"parameterNumberName":"U-component_of_CURRENTS"},"data":[0,0,0,0,0,0,0,0,0,0,0,0,0,0,0,0,0,0,0,0,0,0,0,0,0,0,0,0,0,0,0,0,0,0,0,0,0,0,0,0,0,0,0,0,0,0,0,0,0,0,0,0,0,0,0,0,0,0,-0.1326,-0.1326,0,-0.1382,-0.1383,-0.1383,-0.1416,-0.1416,-0.1416,-0.1416,-0.1496,-0.1498,-0.15,0,0,0,0,0,0,0,0,0,0,0,0,0,-0.1291,-0.1291,-0.1326,-0.1326,-0.1327,-0.1382,-0.1383,-0.1383,-0.1416,-0.1416,-0.1416,-0.1416,-0.1495,-0.1498,-0.15,0,0,0,0,0,0,0,0,0,0,0,0,0,-0.1322,-0.1291,-0.1326,-0.135,-0.1352,-0.1382,-0.1383,-0.1384,-0.1416,-0.1416,-0.1416,-0.1416,-0.1495,-0.1498,-0.1501,-0.1516,0,0,-0.151,-0.1511,0,0,0,0,0,0,0,0,-0.1321,-0.1324,-0.1345,-0.1348,-0.1351,-0.1392,-0.14,-0.1429,-0.1416,-0.1392,-0.1416,-0.1416,-0.1463,-0.1469,-0.1479,-0.152,-0.1523,-0.151,-0.1512,-0.1513,-0.1514,0,0,0,0,0,0,0,-0.1318,-0.1322,-0.1348,-0.1346,-0.135,-0.1373,-0.1377,-0.1406,-0.1426,-0.1394,-0.1396,-0.1402,-0.1465,-0.1476,-0.1481,-0.1525,-0.151,-0.1513,-0.1515,-0.1516,-0.1683,-0.1686,0,0,0,0,0,0,-0.1309,-0.1319,-0.1346,-0.135,-0.1336,-0.1373,-0.1378,-0.1379,-0.1426,-0.1433,-0.1402,-0.1404,-0.1471,-0.1478,-0.1484,-0.1555,-0.1513,-0.1516,-0.1518,-0.168,-0.1684,-0.1686,0,0,0,0,0,0,-0.1307,-0.131,-0.1344,-0.1336,-0.1342,-0.1373,-0.1374,-0.138,-0.1413,-0.1432,-0.1439,-0.1431,-0.1471,-0.148,-0.154,-0.1556,-0.1518,-0.152,-0.1677,-0.1681,-0.1685,-0.1664,0,0,0,0,0,0,-0.1306,-0.1309,-0.1315,-0.1335,-0.1342,-0.137,-0.1374,-0.1381,-0.1415,-0.1418,-0.1459,-0.1465,-0.1472,-0.1536,-0.1543,-0.156,-0.1523,-0.1674,-0.1679,-0.1684,-0.1662,-0.1667,-0.1671,0,0,0,0,0,-0.1305,-0.1305,-0.1315,-0.1319,-0.1346,-0.1371,-0.1377,-0.14,-0.1416,-0.1431,-0.1473,-0.1465,-0.1572,-0.154,-0.1548,-0.1566,-0.1672,-0.1678,-0.1683,-0.1659,-0.1666,-0.1671,0,0,0,0,0,0,-0.1302,-0.1309,-0.132,-0.1326,-0.1353,-0.1377,-0.1396,-0.1415,-0.1459,-0.1472,-0.1493,-0.1503,-0.1562,-0.1582,-0.1545,-0.1636,-0.1623,-0.1631,-0.1603,-0.1609,-0.1614,-0.1597,-0.1525,0,0,0,0,0,-0.1301,-0.13,-0.1322,-0.1332,-0.1347,-0.1379,-0.1397,-0.1414,-0.145,-0.147,-0.1501,-0.1548,-0.159,-0.1613,-0.1652,-0.1697,-0.1692,-0.1721,-0.1726,-0.173,-0.1728,-0.1746,-0.1751,-0.1706,-0.1706,-0.1706,0,0,-0.1308,-0.1309,-0.1314,-0.1332,-0.1357,-0.138,-0.1391,-0.1424,-0.1452,-0.1473,-0.1531,-0.1566,-0.161,-0.166,-0.1689,-0.1677,-0.174,-0.1737,-0.1739,-0.1735,-0.1753,-0.1756,-0.176,-0.171,-0.1709,-0.1708,0,0,-0.1305,-0.1322,-0.1318,-0.1343,-0.1375,-0.1396,-0.1411,-0.145,-0.1479,-0.1536,-0.1562,-0.1609,-0.1678,-0.1701,-0.1725,-0.1788,-0.1768,-0.1811,-0.1812,-0.183,-0.1833,-0.1835,-0.1814,-0.1814,-0.1809,-0.1809,-0.1809,0,-0.1317,-0.1311,-0.1327,-0.1337,-0.1361,-0.1405,-0.1425,-0.1462,-0.1518,-0.1542,-0.156,-0.1662,-0.1695,-0.1745,-0.1768,-0.1792,-0.1789,-0.1773,-0.183,-0.1833,-0.1835,-0.1813,-0.1814,-0.1808,-0.1808,-0.1808,-0.1808,0,-0.1307,-0.1319,-0.1328,-0.1351,-0.1379,-0.1409,-0.1456,-0.1497,-0.1542,-0.1572,-0.1643,-0.1691,-0.1747,-0.1769,-0.1787,-0.1828,-0.1814,-0.1829,-0.1798,-0.1837,-0.1813,-0.1814,-0.1808,-0.1808,-0.1808,-0.1808,0,0,-0.1299,-0.1315,-0.1322,-0.1337,-0.1393,-0.1414,-0.1468,-0.1518,-0.156,-0.1616,-0.1661,-0.1734,-0.1757,-0.1788,-0.1815,-0.1831,-0.1838,-0.1837,-0.1838,-0.1784,-0.1849,-0.1714,-0.1701,-0.1859,-0.186,-0.186,-0.1816,0,-0.1296,-0.1294,-0.1314,-0.1352,-0.1367,-0.1427,-0.1477,-0.1531,-0.1587,-0.1644,-0.1691,-0.1753,-0.1766,-0.1799,-0.1816,-0.1847,-0.1844,-0.1847,-0.1848,-0.1848,-0.1696,-0.17,-0.1863,-0.1816,-0.1817,-0.1817,-0.1817,0,-0.1278,-0.1282,-0.1293,-0.1348,-0.1365,-0.1404,-0.1486,-0.1534,-0.1616,-0.1661,-0.1713,-0.1758,-0.1801,-0.1813,-0.1845,-0.1847,-0.1845,-0.1853,-0.1852,-0.1732,-0.1714,-0.1781,-0.1818,-0.1818,-0.1818,-0.1818,-0.1818,0,-0.1233,-0.1273,-0.1277,-0.1299,-0.1366,-0.1401,-0.1451,-0.1536,-0.1581,-0.1668,-0.1706,-0.1766,-0.1801,-0.1822,-0.1839,-0.185,-0.1855,-0.1872,-0.1736,-0.1726,-0.1868,-0.1867,-0.1878,-0.1878,-0.1878,-0.1878,-0.1878,0,-0.1201,-0.1221,-0.1263,-0.1269,-0.1315,-0.1377,-0.1439,-0.15,-0.1586,-0.162,-0.1708,-0.173,-0.1809,-0.1823,-0.1833,-0.1769,-0.1846,-0.1721,-0.1706,-0.1861,-0.186,-0.1866,-0.1866,-0.1876,-0.1876,-0.1877,-0.1877,0,-0.1147,-0.117,-0.1189,-0.1255,-0.1285,-0.1317,-0.1419,-0.1454,-0.1552,-0.1596,-0.1622,-0.1707,-0.1711,-0.1756,-0.1781,-0.1737,-0.1712,-0.1669,-0.1802,-0.1797,-0.157,-0.1569,-0.1506,-0.1501,-0.1496,-0.1493,-0.149,0,-0.1115,-0.1112,-0.1161,-0.1172,-0.1207,-0.127,-0.1306,-0.1418,-0.1445,-0.1553,-0.1548,-0.1598,-0.1633,-0.1545,-0.1614,-0.1592,-0.1585,-0.1555,-0.1584,-0.154,-0.1532,-0.1539,-0.1544,-0.1483,-0.1482,-0.1481,-0.1479,0,-0.1068,-0.1084,-0.1088,-0.1099,-0.113,-0.1164,-0.1222,-0.1235,-0.134,-0.1445,-0.1429,-0.1435,-0.1427,-0.144,-0.1428,-0.1423,-0.1572,-0.151,-0.1519,-0.1546,-0.1511,-0.1509,-0.152,-0.1464,-0.1466,-0.1468,-0.1469,0,-0.1034,-0.1024,-0.1015,-0.1019,-0.1051,-0.104,-0.1085,-0.1104,-0.1149,-0.1272,-0.1252,-0.1313,-0.1388,-0.1348,-0.1342,-0.132,-0.1311,-0.1282,-0.1304,-0.1321,-0.1286,-0.1217,-0.1048,0,0,0,0,0,-0.0992,-0.0957,-0.0943,-0.0925,-0.0946,-0.096,-0.1019,-0.1065,-0.1167,-0.1109,-0.1183,-0.1168,-0.1159,-0.1198,-0.1137,-0.1266,-0.132,-0.1191,-0.1299,-0.138,-0.1398,-0.1376,0,0,0,0,0,0,-0.0954,-0.094,-0.0908,-0.0842,-0.0816,-0.0826,-0.0853,-0.0912,-0.0894,-0.1004,-0.1001,-0.1091,-0.1098,-0.1171,-0.1112,-0.1123,-0.1165,-0.124,-0.1236,-0.137,-0.1386,-0.14,-0.1384,0,0,0,0,0]},{"header":{"parameterUnit":"m.s-1","parameterCategory":2,"la1":30.2991,"la2":30.254,"lo1":-89.0895,"lo2":-89.0444,"dy":0.0017,"dx":0.0017,"nx":28,"ny":28,"refTime":"2025-01-07T09:00:00:Z","depth":"4","parameterNumber":3,"parameterNumberName":"V-component_of_CURRENTS"},"data":[0,0,0,0,0,0,0,0,0,0,0,0,0,0,0,0,0,0,0,0,0,0,0,0,0,0,0,0,0,0,0,0,0,0,0,0,0,0,0,0,0,0,0,0,0,0,0,0,0,0,0,0,0,0,0,0,0,0,0.0021,0.0021,0,0.0036,0.0037,0.0037,0.0057,0.0057,0.0057,0.0058,0.0088,0.0089,0.0089,0,0,0,0,0,0,0,0,0,0,0,0,0,0.0019,0.0019,0.0021,0.0021,0.0021,0.0036,0.0037,0.0037,0.0057,0.0057,0.0057,0.0058,0.0088,0.0089,0.009,0,0,0,0,0,0,0,0,0,0,0,0,0,0.0026,0.0019,0.0021,0.0032,0.0034,0.0036,0.0037,0.0037,0.0057,0.0057,0.0058,0.0058,0.0088,0.0089,0.009,0.0087,0,0,0.0092,0.0093,0,0,0,0,0,0,0,0,0.0026,0.0026,0.0031,0.0032,0.0033,0.0044,0.0047,0.0054,0.0057,0.0049,0.0058,0.0058,0.0074,0.0076,0.0079,0.0089,0.009,0.0092,0.0093,0.0093,0.0094,0,0,0,0,0,0,0,0.0025,0.0026,0.0028,0.0031,0.0032,0.004,0.0042,0.0049,0.006,0.005,0.0051,0.0051,0.0075,0.0078,0.008,0.0091,0.0092,0.0093,0.0094,0.0094,0.0082,0.0082,0,0,0,0,0,0,0.0021,0.0025,0.0027,0.0028,0.0029,0.004,0.0041,0.0041,0.006,0.0063,0.0051,0.0052,0.0077,0.0079,0.0081,0.0076,0.0093,0.0094,0.0095,0.0083,0.0082,0.0081,0,0,0,0,0,0,0.0021,0.0021,0.0027,0.0027,0.0028,0.0039,0.0039,0.0041,0.0044,0.006,0.0064,0.0051,0.0077,0.008,0.0082,0.0077,0.0094,0.0095,0.0084,0.0083,0.0082,0.0067,0,0,0,0,0,0,0.002,0.0021,0.0021,0.0026,0.0028,0.0026,0.0038,0.0041,0.0044,0.0045,0.0062,0.0065,0.0078,0.0081,0.0083,0.0079,0.0096,0.0085,0.0084,0.0082,0.0068,0.0065,0.0063,0,0,0,0,0,0.002,0.0017,0.0021,0.0021,0.0027,0.0026,0.0027,0.0037,0.0043,0.0042,0.0051,0.0065,0.0072,0.0081,0.0084,0.008,0.0086,0.0084,0.0082,0.007,0.0066,0.0063,0,0,0,0,0,0,0.002,0.0018,0.0023,0.0021,0.0022,0.0029,0.0027,0.0034,0.004,0.004,0.0058,0.0062,0.0059,0.0068,0.0077,0.0069,0.008,0.0078,0.0069,0.0066,0.0063,0.0069,0.0097,0,0,0,0,0,0.0019,0.0012,0.0016,0.0013,0.0012,0.0019,0.0021,0.0025,0.003,0.0033,0.0047,0.0053,0.0053,0.0059,0.0061,0.0061,0.0083,0.0057,0.0054,0.0052,0.0057,0.0081,0.0082,0.0075,0.0075,0.0075,0,0,0.0018,0.0016,0.0013,0.0012,0.0014,0.0008,0.0021,0.0017,0.0015,0.0035,0.0038,0.0043,0.0049,0.0047,0.0046,0.0055,0.0064,0.0049,0.0048,0.0054,0.008,0.0081,0.0081,0.0074,0.0074,0.0074,0,0,0.0007,0.001,-0.0,-0.0004,-0.0007,-0.0003,-0.0006,-0.0,0.0006,0.0005,0.0015,0.002,0.0023,0.0032,0.0034,0.0015,0.0045,0.0009,0.0007,0.0031,0.0032,0.0034,0.0064,0.0068,0.0013,0.0012,0.0012,0,0.0007,-0.0005,-0.0002,-0.0015,-0.0021,-0.001,-0.0023,-0.0016,-0.0008,-0.0003,0.0002,0.0011,0.0017,0.002,0.0012,0.0011,0.0031,0.0023,0.0029,0.0031,0.0033,0.0064,0.0069,0.0012,0.0012,0.0012,0.0012,0,-0.0014,-0.0023,-0.0031,-0.0043,-0.0047,-0.0059,-0.0053,-0.0049,-0.0041,-0.003,-0.0025,-0.0012,-0.0004,-0.0006,-0.0002,0.0009,0.0021,0.0021,0.0043,0.0033,0.0066,0.0071,0.001,0.0011,0.0011,0.0011,0,0,-0.0032,-0.0042,-0.0048,-0.006,-0.0067,-0.0076,-0.0076,-0.0072,-0.0073,-0.0054,-0.0047,-0.0042,-0.0025,-0.0023,-0.0012,0.001,0.0038,0.002,0.0022,0.006,0.0098,0.0086,0.0091,0.0042,0.0043,0.0043,0.0117,0,-0.0053,-0.0075,-0.0077,-0.0104,-0.0119,-0.0112,-0.0117,-0.011,-0.0096,-0.0083,-0.0056,-0.0052,-0.0035,-0.0034,-0.0007,0.0024,0.0052,0.0019,0.0094,0.0097,0.0095,0.0096,0.0046,0.0121,0.0123,0.0124,0.0124,0,-0.0087,-0.0097,-0.0119,-0.0141,-0.0147,-0.0158,-0.0165,-0.0165,-0.0139,-0.0128,-0.01,-0.0077,-0.0041,-0.0032,0.0042,0.0021,0.0058,0.0087,0.0091,0.009,0.0094,0.0132,0.0135,0.0134,0.0133,0.0133,0.0132,0,-0.0116,-0.0137,-0.0153,-0.0162,-0.0175,-0.0184,-0.019,-0.0178,-0.0185,-0.015,-0.0151,-0.0092,-0.0074,-0.0011,0.0053,0.0049,0.0135,0.0138,0.0167,0.0167,0.0165,0.0163,0.019,0.019,0.019,0.0189,0.0189,0,-0.0151,-0.0176,-0.0168,-0.0184,-0.0214,-0.0213,-0.0238,-0.0231,-0.0222,-0.0231,-0.0176,-0.0168,-0.0071,-0.0011,0.0055,0.0131,0.0141,0.0173,0.0185,0.0156,0.0152,0.017,0.0166,0.0192,0.0192,0.0191,0.0191,0,-0.0197,-0.0187,-0.0215,-0.0222,-0.0231,-0.0254,-0.0282,-0.0295,-0.0283,-0.0289,-0.0283,-0.0218,-0.0136,-0.0039,0.0068,0.0121,0.02,0.022,0.019,0.0198,0.022,0.0215,0.0272,0.0272,0.0272,0.0273,0.0273,0,-0.0225,-0.0239,-0.0247,-0.0262,-0.0271,-0.0301,-0.0324,-0.0326,-0.0337,-0.0324,-0.0326,-0.0255,-0.0201,-0.0045,0.0056,0.0196,0.0204,0.0252,0.0233,0.0222,0.0229,0.0223,0.0218,0.0273,0.0273,0.0273,0.0273,0,-0.0288,-0.0282,-0.0293,-0.0313,-0.0337,-0.0365,-0.0392,-0.0408,-0.0405,-0.04,-0.0358,-0.0276,-0.0183,-0.005,0.0056,0.0152,0.0229,0.0254,0.0254,0.0237,0.0224,0.0229,0.0224,0.0273,0.0273,0.0273,0.0273,0,-0.0329,-0.035,-0.0351,-0.0371,-0.0396,-0.0415,-0.0425,-0.0429,-0.0436,-0.0412,-0.0396,-0.0293,-0.0223,-0.0074,0.0022,0.012,0.0142,0.017,0.0175,0.0176,0.012,0.0088,0.0111,0,0,0,0,0,-0.0366,-0.0394,-0.0416,-0.0425,-0.044,-0.0452,-0.0467,-0.0466,-0.0464,-0.0439,-0.0417,-0.0329,-0.0178,-0.0106,-0.001,0.002,0.0154,0.0134,0.0188,0.0276,0.0276,0.0225,0,0,0,0,0,0,-0.039,-0.0425,-0.0429,-0.046,-0.0473,-0.0493,-0.0498,-0.049,-0.0466,-0.0448,-0.0361,-0.0318,-0.0163,-0.0237,-0.0015,0.0015,0.006,0.0208,0.0209,0.0276,0.0276,0.0275,0.0223,0,0,0,0,0]}]]